[[{"header":{"parameterUnit":"m.s-1","parameterCategory":1,"la1":30.2991,"la2":30.254,"lo1":-89.0895,"lo2":-89.0444,"dy":0.0017,"dx":0.0017,"nx":28,"ny":28,"refTime":"2024-02-24T09:00:00:Z","depth":0,"parameterNumber":2,"parameterNumberName":"U-component_of_WINDS"},"data":[0,0,0,0,0,0,0,0,0,0,0,0,0,0,0,0,0,0,0,0,0,0,0,0,0,0,0,0,0,0,0,0,0,0,0,0,0,0,0,0,0,0,0,0,0,0,0,0,0,0,0,0,0,0,0,0,0,0,-2.9491,-2.9492,0,-2.9564,-2.9565,-2.9566,-2.954,-2.9539,-2.9537,-2.9536,-2.9611,-2.9615,-2.9618,0,0,0,0,0,0,0,0,0,0,0,0,0,-2.9331,-2.9334,-2.9491,-2.9492,-2.9493,-2.9564,-2.9565,-2.9566,-2.9541,-2.9539,-2.9537,-2.9535,-2.961,-2.9614,-2.9619,0,0,0,0,0,0,0,0,0,0,0,0,0,-2.9402,-2.9335,-2.9491,-2.9489,-2.9489,-2.9564,-2.9565,-2.9567,-2.9541,-2.9539,-2.9536,-2.9534,-2.9609,-2.9614,-2.9619,-2.9701,0,0,-2.9635,-2.9638,0,0,0,0,0,0,0,0,-2.9398,-2.9408,-2.9488,-2.9489,-2.949,-2.9541,-2.9537,-2.9612,-2.9542,-2.9522,-2.9536,-2.9533,-2.959,-2.9597,-2.9616,-2.9704,-2.9707,-2.9636,-2.9639,-2.9641,-2.9643,0,0,0,0,0,0,0,-2.9393,-2.9405,-2.952,-2.9489,-2.949,-2.9485,-2.9492,-2.9551,-2.9569,-2.9523,-2.9521,-2.953,-2.959,-2.9611,-2.9617,-2.9708,-2.9636,-2.964,-2.9644,-2.9646,-2.9869,-2.9872,0,0,0,0,0,0,-2.9388,-2.9401,-2.9518,-2.9522,-2.9437,-2.949,-2.9498,-2.9527,-2.9568,-2.9572,-2.9532,-2.9529,-2.9603,-2.9611,-2.962,-2.9719,-2.9641,-2.9646,-2.9649,-2.9867,-2.987,-2.9873,0,0,0,0,0,0,-2.9384,-2.9398,-2.9515,-2.9461,-2.9476,-2.9495,-2.9528,-2.953,-2.955,-2.9575,-2.9578,-2.955,-2.9601,-2.9612,-2.9681,-2.9721,-2.9649,-2.9653,-2.9863,-2.9868,-2.9872,-2.9917,0,0,0,0,0,0,-2.938,-2.9397,-2.9428,-2.9462,-2.9479,-2.9574,-2.953,-2.9533,-2.9559,-2.9556,-2.9592,-2.9596,-2.96,-2.9673,-2.9686,-2.9727,-2.9658,-2.986,-2.9865,-2.987,-2.9912,-2.9922,-2.9931,0,0,0,0,0,-2.9374,-2.9437,-2.9429,-2.9444,-2.9517,-2.9577,-2.9586,-2.9589,-2.9563,-2.9594,-2.961,-2.9595,-2.9715,-2.9681,-2.9695,-2.9738,-2.9857,-2.9864,-2.987,-2.9908,-2.992,-2.993,0,0,0,0,0,0,-2.9407,-2.9442,-2.9433,-2.9509,-2.954,-2.9572,-2.9611,-2.9602,-2.9641,-2.9636,-2.9639,-2.9647,-2.9718,-2.9735,-2.9696,-2.982,-2.9782,-2.9792,-2.9806,-2.9818,-2.9827,-2.9822,-2.9662,0,0,0,0,0,-2.9423,-2.9468,-2.9496,-2.9561,-2.9577,-2.9592,-2.9618,-2.9618,-2.965,-2.9663,-2.9684,-2.9716,-2.9761,-2.979,-2.9833,-2.9915,-2.9923,-2.9951,-2.9961,-2.9968,-2.9976,-3.0022,-3.0035,-2.9894,-2.9893,-2.9893,0,0,-2.9457,-2.9481,-2.9509,-2.9568,-2.9592,-2.9639,-2.9603,-2.9654,-2.9689,-2.9671,-2.9737,-2.9754,-2.979,-2.9866,-2.99,-2.9882,-3.0018,-2.9976,-2.9982,-2.9986,-3.003,-3.0043,-3.0055,-2.9898,-2.9897,-2.9896,0,0,-2.9542,-2.9565,-2.9622,-2.9647,-2.9684,-2.9694,-2.9708,-2.9742,-2.9752,-2.9819,-2.9806,-2.9849,-2.9926,-2.9953,-2.9976,-3.0075,-3.0062,-3.0088,-3.0138,-3.0182,-3.0193,-3.0203,-3.0239,-3.0252,-3.0096,-3.0097,-3.0097,0,-2.9579,-2.9649,-2.9652,-2.9705,-2.9732,-2.9718,-2.9776,-2.98,-2.9849,-2.9868,-2.9847,-2.9945,-2.9968,-3.0051,-3.0075,-3.0095,-3.0111,-3.0084,-3.0191,-3.0201,-3.0211,-3.0245,-3.0258,-3.01,-3.0099,-3.0099,-3.0099,0,-2.9694,-2.9743,-2.9785,-2.9833,-2.9864,-2.9919,-2.9931,-2.9963,-2.9961,-2.9974,-3.0043,-3.007,-3.0119,-3.0139,-3.0137,-3.0222,-3.021,-3.019,-3.0152,-3.0227,-3.0259,-3.0272,-3.0104,-3.0103,-3.0102,-3.0101,0,0,-2.98,-2.9851,-2.9866,-2.9888,-2.9929,-2.9967,-3.0023,-3.0071,-3.0098,-3.0133,-3.0181,-3.0247,-3.023,-3.0257,-3.0259,-3.0298,-3.0375,-3.0274,-3.0275,-3.0292,-3.0471,-3.0486,-3.0501,-3.0368,-3.037,-3.0372,-3.0469,0,-2.9889,-2.9986,-2.9991,-3.0079,-3.0125,-3.0114,-3.0162,-3.0193,-3.0207,-3.0249,-3.0264,-3.0312,-3.0285,-3.0302,-3.034,-3.0357,-3.0411,-3.0351,-3.0412,-3.0414,-3.0403,-3.0517,-3.0532,-3.0622,-3.0481,-3.0483,-3.0485,0,-3.0005,-3.0044,-3.0137,-3.0173,-3.0193,-3.0236,-3.0281,-3.0321,-3.0357,-3.0364,-3.0396,-3.0392,-3.045,-3.0411,-3.0492,-3.045,-3.0476,-3.0489,-3.0493,-3.0498,-3.0454,-3.0526,-3.065,-3.0664,-3.0504,-3.0503,-3.0501,0,-3.0074,-3.015,-3.0216,-3.0235,-3.0279,-3.031,-3.033,-3.0363,-3.0392,-3.0432,-3.0451,-3.0497,-3.0522,-3.0559,-3.0568,-3.0539,-3.0649,-3.061,-3.0657,-3.0657,-3.068,-3.0679,-3.081,-3.0697,-3.0697,-3.0697,-3.0697,0,-3.0172,-3.023,-3.0248,-3.0288,-3.0353,-3.0359,-3.0423,-3.0441,-3.0471,-3.0515,-3.0508,-3.055,-3.056,-3.0605,-3.0613,-3.0679,-3.069,-3.0698,-3.07,-3.0699,-3.0698,-3.0715,-3.0709,-3.0701,-3.07,-3.0699,-3.0698,0,-3.0259,-3.0274,-3.0345,-3.0381,-3.0391,-3.0437,-3.0468,-3.0508,-3.0522,-3.0578,-3.0592,-3.0613,-3.0665,-3.0679,-3.0741,-3.0746,-3.0824,-3.082,-3.0812,-3.0812,-3.0858,-3.0854,-3.1006,-3.1026,-3.09,-3.0901,-3.0902,0,-3.0321,-3.0365,-3.0406,-3.0436,-3.0457,-3.0504,-3.0534,-3.0543,-3.0574,-3.062,-3.0654,-3.0705,-3.0746,-3.0831,-3.0852,-3.09,-3.0897,-3.0947,-3.0904,-3.0902,-3.0898,-3.0895,-3.09,-3.0955,-3.0956,-3.0957,-3.0958,0,-3.0429,-3.0435,-3.0478,-3.0525,-3.0561,-3.0598,-3.0633,-3.0658,-3.0672,-3.0708,-3.0761,-3.0793,-3.0858,-3.0909,-3.0958,-3.0979,-3.0971,-3.0972,-3.0985,-3.0984,-3.0978,-3.0983,-3.0835,-3.0968,-3.0967,-3.0966,-3.0966,-3.0965,-3.0506,-3.0545,-3.0581,-3.063,-3.0658,-3.0692,-3.0731,-3.075,-3.0794,-3.0847,-3.085,-3.0908,-3.0945,-3.1009,-3.1033,-3.108,-3.1065,-3.1084,-3.1089,-3.1094,-3.1098,-3.0971,-3.1089,-3.1088,-3.1088,-3.1088,-3.1088,0,-3.0614,-3.0637,-3.0682,-3.0732,-3.0771,-3.0761,-3.0801,-3.0834,-3.0886,-3.092,-3.0961,-3.1024,-3.1074,-3.11,-3.1151,-3.1183,-3.1181,-3.1196,-3.1193,-3.1199,-3.1108,-3.1091,-3.1197,-3.1197,-3.1197,-3.1197,-3.1197,-3.1197,-3.0675,-3.0741,-3.0751,-3.0832,-3.0854,-3.0911,-3.0935,-3.0966,-3.0994,-3.1064,-3.1106,-3.1123,-3.1155,-3.1208,-3.1254,-3.1261,-3.128,-3.1297,-3.1301,-3.1216,-3.1205,-3.1194,-3.1179,-3.1301,-3.1301,-3.1388,-3.1389,-3.139]},{"header":{"parameterUnit":"m.s-1","parameterCategory":1,"la1":30.2991,"la2":30.254,"lo1":-89.0895,"lo2":-89.0444,"dy":0.0017,"dx":0.0017,"nx":28,"ny":28,"refTime":"2024-02-24T09:00:00:Z","depth":0,"parameterNumber":3,"parameterNumberName":"V-component_of_WINDS"},"data":[0,0,0,0,0,0,0,0,0,0,0,0,0,0,0,0,0,0,0,0,0,0,0,0,0,0,0,0,0,0,0,0,0,0,0,0,0,0,0,0,0,0,0,0,0,0,0,0,0,0,0,0,0,0,0,0,0,0,1.0204,1.0204,0,1.0198,1.0198,1.0198,1.0199,1.0199,1.0199,1.0199,1.0191,1.0191,1.0191,0,0,0,0,0,0,0,0,0,0,0,0,0,1.0216,1.0215,1.0204,1.0204,1.0204,1.0198,1.0198,1.0198,1.0199,1.0199,1.0199,1.0199,1.0191,1.0191,1.0191,0,0,0,0,0,0,0,0,0,0,0,0,0,1.021,1.0215,1.0204,1.0204,1.0204,1.0198,1.0198,1.0198,1.0199,1.0199,1.0199,1.0199,1.0192,1.0191,1.0191,1.0185,0,0,1.0189,1.0189,0,0,0,0,0,0,0,0,1.021,1.021,1.0204,1.0204,1.0204,1.0199,1.0199,1.0193,1.0199,1.02,1.0199,1.0199,1.0194,1.0193,1.0192,1.0184,1.0184,1.0189,1.0189,1.0189,1.0189,0,0,0,0,0,0,0,1.0211,1.021,1.0202,1.0204,1.0204,1.0204,1.0203,1.0198,1.0196,1.02,1.02,1.02,1.0194,1.0192,1.0191,1.0184,1.0189,1.0189,1.0189,1.0188,1.0173,1.0173,0,0,0,0,0,0,1.0211,1.021,1.0202,1.0201,1.0207,1.0203,1.0203,1.02,1.0196,1.0196,1.02,1.02,1.0193,1.0192,1.0191,1.0185,1.0189,1.0188,1.0188,1.0173,1.0173,1.0173,0,0,0,0,0,0,1.0212,1.0211,1.0202,1.0206,1.0205,1.0203,1.0201,1.02,1.0199,1.0196,1.0195,1.0198,1.0193,1.0192,1.0187,1.0185,1.0188,1.0188,1.0173,1.0173,1.0173,1.0172,0,0,0,0,0,0,1.0212,1.0211,1.0208,1.0206,1.0205,1.0198,1.02,1.02,1.0198,1.0198,1.0194,1.0194,1.0193,1.0187,1.0186,1.0184,1.0187,1.0174,1.0173,1.0173,1.0172,1.0171,1.0171,0,0,0,0,0,1.0212,1.0208,1.0208,1.0207,1.0202,1.0198,1.0197,1.0196,1.0198,1.0196,1.0194,1.0194,1.0185,1.0187,1.0186,1.0183,1.0174,1.0173,1.0173,1.0172,1.0171,1.0171,0,0,0,0,0,0,1.0209,1.0207,1.0208,1.0202,1.02,1.0198,1.0195,1.0195,1.0192,1.0193,1.0192,1.0191,1.0186,1.0184,1.0186,1.0178,1.018,1.0179,1.0179,1.0179,1.0178,1.0179,1.0187,0,0,0,0,0,1.0208,1.0205,1.0203,1.0199,1.0198,1.0197,1.0195,1.0195,1.0192,1.0191,1.0189,1.0186,1.0183,1.0181,1.0177,1.0172,1.0171,1.0169,1.0169,1.0169,1.0168,1.0166,1.0165,1.0172,1.0172,1.0172,0,0,1.0205,1.0204,1.0202,1.0198,1.0196,1.0194,1.0196,1.0192,1.019,1.019,1.0186,1.0184,1.0181,1.0176,1.0174,1.0175,1.0166,1.0168,1.0168,1.0168,1.0166,1.0165,1.0164,1.0172,1.0172,1.0172,0,0,1.0198,1.0197,1.0193,1.0192,1.019,1.019,1.0189,1.0187,1.0186,1.0182,1.0182,1.0179,1.0173,1.0172,1.017,1.0164,1.0165,1.0163,1.0161,1.0159,1.0158,1.0158,1.0156,1.0156,1.0163,1.0163,1.0163,0,1.0195,1.0191,1.0191,1.0188,1.0187,1.0188,1.0184,1.0183,1.018,1.0179,1.018,1.0173,1.0171,1.0166,1.0165,1.0164,1.0163,1.0164,1.0158,1.0158,1.0158,1.0156,1.0155,1.0163,1.0163,1.0163,1.0163,0,1.0187,1.0184,1.0181,1.0179,1.0178,1.0174,1.0174,1.0172,1.0173,1.0172,1.0168,1.0166,1.0163,1.0162,1.0162,1.0157,1.0158,1.0159,1.016,1.0157,1.0155,1.0155,1.0163,1.0163,1.0163,1.0163,0,0,1.0177,1.0176,1.0175,1.0175,1.0173,1.0171,1.0168,1.0166,1.0165,1.0163,1.016,1.0156,1.0157,1.0156,1.0155,1.0154,1.015,1.0155,1.0155,1.0154,1.0146,1.0145,1.0144,1.0151,1.015,1.015,1.0146,0,1.017,1.0165,1.0166,1.0162,1.0159,1.0162,1.0159,1.0158,1.0158,1.0156,1.0155,1.0153,1.0154,1.0153,1.0152,1.0151,1.0148,1.0151,1.0148,1.0148,1.0149,1.0144,1.0143,1.0139,1.0145,1.0145,1.0145,0,1.0161,1.016,1.0156,1.0156,1.0155,1.0153,1.0151,1.015,1.0149,1.0149,1.0148,1.0148,1.0145,1.0148,1.0144,1.0146,1.0145,1.0145,1.0145,1.0144,1.0146,1.0143,1.0137,1.0137,1.0144,1.0144,1.0144,0,1.0155,1.0152,1.015,1.0149,1.0149,1.0148,1.0147,1.0147,1.0146,1.0145,1.0144,1.0142,1.0141,1.014,1.014,1.0142,1.0137,1.0139,1.0137,1.0137,1.0135,1.0135,1.0129,1.0135,1.0135,1.0135,1.0135,0,1.0147,1.0145,1.0147,1.0145,1.0142,1.0144,1.0141,1.0141,1.0141,1.0139,1.014,1.0139,1.0139,1.0138,1.0138,1.0135,1.0135,1.0135,1.0135,1.0135,1.0135,1.0134,1.0134,1.0135,1.0135,1.0135,1.0135,0,1.0139,1.0141,1.0138,1.0139,1.0139,1.0137,1.0138,1.0136,1.0137,1.0135,1.0134,1.0135,1.0133,1.0134,1.0132,1.0132,1.0129,1.0129,1.0129,1.0129,1.0128,1.0128,1.0121,1.012,1.0126,1.0126,1.0126,0,1.0134,1.0133,1.0134,1.0133,1.0133,1.0132,1.0131,1.0133,1.0132,1.0132,1.0131,1.013,1.0129,1.0126,1.0126,1.0125,1.0125,1.0123,1.0125,1.0125,1.0126,1.0126,1.0126,1.0122,1.0122,1.0122,1.0122,0,1.0126,1.0127,1.0126,1.0126,1.0126,1.0126,1.0125,1.0125,1.0127,1.0126,1.0125,1.0124,1.0123,1.0122,1.0121,1.0121,1.0122,1.0122,1.0121,1.0121,1.0121,1.0121,1.0128,1.0122,1.0122,1.0122,1.0122,1.0122,1.0119,1.0118,1.0119,1.0119,1.0119,1.0119,1.0118,1.0119,1.0119,1.0118,1.0119,1.0118,1.0118,1.0118,1.0117,1.0116,1.0117,1.0116,1.0116,1.0116,1.0116,1.0122,1.0116,1.0116,1.0116,1.0116,1.0116,0,1.0111,1.0112,1.0112,1.0112,1.0112,1.0114,1.0114,1.0114,1.0113,1.0114,1.0113,1.0112,1.0112,1.0113,1.0112,1.0111,1.0112,1.0111,1.0111,1.0111,1.0115,1.0116,1.0111,1.0111,1.0111,1.0111,1.0111,1.0111,1.0106,1.0105,1.0106,1.0105,1.0106,1.0106,1.0106,1.0106,1.0107,1.0106,1.0106,1.0107,1.0108,1.0107,1.0107,1.0107,1.0107,1.0106,1.0107,1.011,1.0111,1.0111,1.0112,1.0106,1.0106,1.0103,1.0103,1.0103]}]]